Hanamaulu, HI

7:10 PM HST on September 29, 2016 (GMT -1000)
Lihue

Weather History for PHLI - January, 2012

Change the Weather History Date:

Thursday, January 12, 2012

  Actual Average Record
Temperature  
Mean Temperature 72 °F 72 °F  
Max Temperature 82 °F 78 °F 82 °F (1959)
Min Temperature 62 °F 66 °F 55 °F (1954)
Degree Days  
Heating Degree Days 0 0  
Month to date heating degree days 0 0  
Since 1 July heating degree days 0 0  
Cooling Degree Days 7 7  
Month to date cooling degree days 99 84  
Year to date cooling degree days 99 84  
Growing Degree Days 21 (Base 50)    
Moisture  
Dew Point 62 °F    
Average Humidity 72    
Maximum Humidity 90    
Minimum Humidity 54    
Precipitation  
Precipitation 0.00 in 0.12 in 1.62 in (2011)
Month to date precipitation 0.19 1.55  
Year to date precipitation 0.19 1.55  
Snow  
Snow 0.00 in - - ()
Month to date snowfall 0.0  
Since 1 July snowfall 0.0  
Snow Depth 0.00 in    
Sea Level Pressure  
Sea Level Pressure 29.93 in    
Wind  
Wind Speed 8 mph (West)    
Max Wind Speed 18 mph    
Max Gust Speed 22 mph    
Visibility 10 miles    
Events      
T = Trace of Precipitation, MM = Missing Value Source: NWS Daily Summary

Daily Weather History Graph

Daily Weather History Graph

Search for Another Location

Airport or City:

Trip Planner

Search our weather history database for the weather conditions in past years. The results will help you decide how hot, cold, wet, or windy it might be!

Date:

Astronomy

Jan. 12, 2012 Rise Set
Actual Time 7:18 AM HST 6:12 PM HST
Civil Twilight 6:54 AM HST 6:36 PM HST
Nautical Twilight 6:26 AM HST 7:04 PM HST
Astronomical Twilight 5:59 AM HST 7:31 PM HST
Moon 9:54 PM HST (1/12) 9:40 AM HST (1/12)
Length of Visible Light 11h 42m
Length of Day
10h 54m
Waning Gibbous, 85% of the Moon is Illuminated
Jan 12
Waning Gibbous
Jan 15
Last Quarter
Jan 22
New
Jan 30
First Quarter
Feb 7
Full

Hourly Weather History & Observations

Time (HST) Temp. Heat Index Dew Point Humidity Pressure Visibility Wind Dir Wind Speed Gust Speed Precip Events Conditions
12:53 AM 66.0 °F - 63.0 °F 90% 29.99 in 10.0 mi WSW 8.1 mph - N/A   Overcast
1:53 AM 68.0 °F - 63.0 °F 84% 29.98 in 10.0 mi WNW 6.9 mph - N/A   Overcast
2:53 AM 66.0 °F - 62.1 °F 87% 29.97 in 10.0 mi West 8.1 mph - N/A   Partly Cloudy
3:53 AM 64.0 °F - 60.1 °F 87% 29.95 in 10.0 mi WNW 6.9 mph - N/A   Clear
4:53 AM 63.0 °F - 59.0 °F 87% 29.95 in 10.0 mi West 9.2 mph - N/A   Clear
5:53 AM 63.0 °F - 59.0 °F 87% 29.96 in 10.0 mi West 3.5 mph - N/A   Clear
6:53 AM 62.1 °F - 57.9 °F 86% 29.97 in 10.0 mi WSW 5.8 mph - N/A   Clear
7:53 AM 63.0 °F - 59.0 °F 87% 29.97 in 10.0 mi WSW 5.8 mph - N/A   Clear
8:53 AM 70.0 °F - 60.1 °F 71% 29.98 in 10.0 mi West 4.6 mph - N/A   Clear
9:53 AM 73.9 °F - 62.1 °F 66% 29.98 in 10.0 mi ESE 6.9 mph - N/A   Clear
10:53 AM 77.0 °F - 64.0 °F 64% 29.96 in 10.0 mi South 6.9 mph - N/A   Clear
11:53 AM 78.1 °F - 61.0 °F 56% 29.93 in 10.0 mi South 10.4 mph - N/A   Mostly Cloudy
12:53 PM 79.0 °F - 61.0 °F 54% 29.90 in 10.0 mi SW 6.9 mph - N/A   Partly Cloudy
1:53 PM 80.1 °F 81.2 °F 62.1 °F 54% 29.88 in 10.0 mi WSW 11.5 mph - N/A   Partly Cloudy
2:26 PM 78.8 °F - 62.6 °F 57% 29.88 in 10.0 mi North 18.4 mph - N/A   Mostly Cloudy
2:53 PM 75.9 °F - 64.0 °F 67% 29.87 in 10.0 mi NE 13.8 mph - N/A   Mostly Cloudy
3:53 PM 75.9 °F - 64.0 °F 67% 29.88 in 10.0 mi NE 13.8 mph - N/A   Scattered Clouds
4:53 PM 75.9 °F - 64.0 °F 67% 29.89 in 10.0 mi ENE 11.5 mph - N/A   Scattered Clouds
5:53 PM 73.9 °F - 64.0 °F 71% 29.90 in 10.0 mi East 10.4 mph - N/A   Scattered Clouds
6:53 PM 73.0 °F - 64.0 °F 73% 29.91 in 10.0 mi East 9.2 mph - N/A   Scattered Clouds
7:53 PM 70.0 °F - 64.0 °F 81% 29.93 in 10.0 mi WNW 6.9 mph - N/A   Clear
8:53 PM 66.9 °F - 63.0 °F 87% 29.93 in 10.0 mi WSW 8.1 mph - N/A   Clear
9:53 PM 66.9 °F - 63.0 °F 87% 29.93 in 10.0 mi West 5.8 mph - N/A   Clear
10:53 PM 64.9 °F - 61.0 °F 87% 29.91 in 10.0 mi West 10.4 mph - N/A   Clear
11:53 PM 63.0 °F - 60.1 °F 90% 29.90 in 10.0 mi West 6.9 mph - N/A   Clear